Home   Weather   Rio de Janeiro   Past weeks
Flag for Brazil

Past Weather in Rio de Janeiro, Rio de Janeiro, Brazil — Yesterday and Last 2 Weeks

Now
66 °F

Clear.


Feels Like: 66 °F
Forecast: 81 / 67 °F
Wind: 5 mph from Northwest

Location: Rio De Janeiro Airport

Current Time: Jul 22, 2019 at 7:05:50 am

Latest Report: Jul 22, 2019 at 6:00 am


Visibility: 10 mi

Pressure: 30.18 "Hg

Humidity: 94%

Dew Point: 64 °F

Location of Rio de JaneiroLocation

Past Weather in Rio de Janeiro — Graph

°F

Rio de Janeiro Temperature Yesterday

Maximum temperature yesterday: 81 °F (at 1:00 pm)
Minimum temperature yesterday: 64 °F (at 6:00 am)
Average temperature yesterday: 72 °F

High & Low Weather Summary for the Past Weeks

 TemperatureHumidityPressure
High82 °F (Jul 13, 3:00 pm)100% (Jul 11, 6:00 am)30.36 "Hg (Jul 11, 6:00 am)
Low61 °F (Jul 7, 6:00 am)45% (Jul 12, 1:00 pm)29.89 "Hg (Jul 14, 3:00 pm)
Average70 °F76%30.15 "Hg
* Reported Jul 7 6:00 am — Jul 22 6:00 am, Rio de Janeiro. Weather by CustomWeather, © 2019

Note: Actual official high and low records may vary slightly from our data, if they occured in-between our weather recording intervals... More about our weather records

Advertising

Rio de Janeiro Weather History for the Previous 24 Hours

Scroll right to see more
 ConditionsComfort  
Time TempWeatherWind HumidityBarometerVisibility
6:00 am
Mon, Jul 22
66 °FClear.5 mph94%30.18 "Hg10 mi
5:00 am68 °FClear.1 mph88%30.15 "Hg10 mi
4:00 am68 °FClear.3 mph88%30.15 "Hg10 mi
3:00 am70 °FClear.3 mph83%30.15 "Hg10 mi
2:00 am70 °FClear.6 mph83%30.18 "Hg10 mi
1:00 am70 °FClear.2 mph78%30.18 "Hg10 mi
12:00 am70 °FClear.3 mph83%30.21 "Hg10 mi
11:00 pm
Sun, Jul 21
70 °FClear.5 mph83%30.21 "Hg10 mi
10:00 pm72 °FClear.7 mph78%30.21 "Hg10 mi
9:00 pm72 °FClear.6 mph78%30.18 "Hg10 mi
8:00 pm72 °FClear.8 mph83%30.18 "Hg10 mi
7:00 pm73 °FClear.3 mph74%30.15 "Hg10 mi
6:00 pm73 °FClear.5 mph83%30.15 "Hg10 mi
5:00 pm75 °FPassing clouds.13 mph78%30.15 "HgN/A
4:00 pm79 °FPassing clouds.8 mph65%30.12 "HgN/A
3:00 pm81 °FPassing clouds.8 mph58%30.15 "HgN/A
2:00 pm81 °FPassing clouds.8 mph58%30.15 "HgN/A
1:00 pm81 °FPassing clouds.2 mph58%30.18 "HgN/A
12:00 pm79 °FSunny.5 mph58%30.21 "Hg10 mi
11:00 am77 °FSunny.2 mph65%30.21 "Hg10 mi
10:00 am73 °FSunny.6 mph74%30.24 "Hg10 mi
9:00 am72 °FSunny.3 mph78%30.24 "Hg10 mi
8:00 am70 °FSunny.3 mph83%30.21 "Hg10 mi
7:00 am66 °FSunny.3 mph88%30.21 "Hg10 mi
Weather by CustomWeather, © 2019

See weather overview